ATLAS 5 CENTAUR DEB, 44687

Orbit data source: Space-Track

ATLAS 5 CENTAUR DEB, 44687 is space debris in HEO originally from a launch on Wed, 17 Oct 2018 UTC launched from the Air Force Eastern Test Range (AFETR). Debris objects in space refer to the collection of defunct objects orbiting the Earth. Examples of debris include non-operational satellites, rocket bodies, and fragments generated from explosions, collisions, or faulty payload assembly.

Loading next visibility...
Identifier
44687, 2018-079AZ
Orbit
HEO
Country
Flag of USUS
Related business
Flag of USUnited Launch Alliance/Lockheed Martin (US)
Manufacturer
ULA Decatur
Mission
Spacecraft
Bus & Motor
Unknown
Mass
Unknown
Launch date (UTC)
2018-10-17 (7 years ago)
Launch vehicle
Unknown
Launch site
Air Force Eastern Test Range (AFETR)
Object type
Payload
Rocket body
Debris
Shape & HBR
Unknown shape, 1.1 m
Radar Cross Section
RCS unknown

Expand to show TLE details & history
Last TLE update: 5 days ago

TLE from 5 days ago
0 ATLAS 5 CENTAUR DEB
1 44687U 18079AZ  26030.25860950 -.00000195  00000-0  00000-0 0  9996
2 44687  13.0876  49.8826 4625967 287.5077  28.1180  1.82179949 43645
Epoch: 2026-01-30T06:12Z
TLE epoch observation values (Epoch: 2026-01-30T06:12:23.860Z)
Latitude
-0.00001°
Longitude
-172.65004°
Altitude
13,172.862 km
Speed
5.167 km/s
True Right ascension
03h 19m 47s
True Declination
0° 00' 00"
Sunlit
Object was in daylight at epoch
Visualization orbit readout
Latitude
Unknown
Longitude
Unknown
Altitude
Unknown
Speed
Unknown
Apparent Right ascension
Unknown
Apparent Declination
Unknown
Sunlit
N/A
Visualization observer readout
Local Sidereal Time
03:18:56
Azimuth
Unknown
Elevation
Unknown
Doppler factor
Unknown
Orbital elements
Apogee altitude
35,043.244 km
Perigee altitude
8,841.361 km
Semi-major axis
28,320.439 km
Eccentricity
0.4626
Inclination
13.0876°
RAAN
49.8826°
Arg. of periapsis
287.5077°
True anomaly
72.25004°
Mean anomaly
28.118°
Eccentric anomaly
47.73166°
Mean motion
0.4554 °/min
Orbital period
790.51 mins
BSTAR
0
Loading maneuver chart data...
Computing Atmospheric mass density...

Documentation

Showing up to 5 results
|